Regional Weather Roundup
Issued by NWS

Home | Current Version | Previous Version | Text Only | Print | Product List | Glossary Off
Versions: 1 2 3 4 5 6 7 8 9 10 11 12 13 14 15 16 17 18 19 20 21 22 23 24 25 26 27 28 29 30 31 32 33 34 35 36 37 38 39 40 41 42 43 44 45 46 47 48 49 50

000
ASUS43 KIND 210600
RWRIN

WEATHER ROUNDUP FOR INDIANA
NATIONAL WEATHER SERVICE INDIANAPOLIS IN
200 AM EDT THU SEP 21 2017

NOTE: "FAIR" INDICATES FEW OR NO CLOUDS BELOW 12,000 FEET WITH NO
SIGNIFICANT WEATHER AND/OR OBSTRUCTIONS TO VISIBILITY.

* - STATION DOES NOT REPORT WEATHER SUCH AS PRECIPITATION OR FOG.

+ - STATION NOT QUALITY CONTROLLED BY THE NATIONAL WEATHER SERVICE.
    USE DATA WITH CAUTION...ESPECIALLY DEWPOINT AND RELATIVE
    HUMIDITY OBSERVATIONS.

INZ001>003-010>013-019-020-210700-
NORTHWEST INDIANA

CITY           SKY/WX    TMP DP  RH WIND       PRES   REMARKS
MICHIGAN CITY+ CLOUDY    75  66  73 S7        29.99R

$$

LMZ046-743>745-210700-
SOUTHERN LAKE MICHIGAN

STATION/POSITION TIME  TEMP    WIND        PRES    WAVE
                       AIR SEA DIR/SP/G            HT
                 (UTC) (F)     (DEG/KT/KT) (MB)    (FT)
BURNS HARBOR     0540   77     180/  9/ 13 1014.9R
MICHIGAN CITY    0530   78     150/ 10/ 12   N/A
5NW MICH CITY    0550   73 70  170/  6/  8   N/A     0

$$

INZ004-005-014>016-021>024-210700-
NORTH CENTRAL INDIANA

CITY           SKY/WX    TMP DP  RH WIND       PRES   REMARKS
GOSHEN         CLOUDY    72  66  81 S5        30.01R
6HR MIN TEMP:  72; 6HR MAX TEMP:  80;

SOUTH BEND     PTCLDY    71  69  93 S6        30.00S
6HR MIN TEMP:  71; 6HR MAX TEMP:  81;


$$

INZ006>009-017-018-025>027-210700-
NORTHEAST INDIANA

CITY           SKY/WX    TMP DP  RH WIND       PRES   REMARKS
FORT WAYNE     PTCLDY    68  66  93 S3        30.03R
6HR MIN TEMP:  68; 6HR MAX TEMP:  76;

KENDALLVILLE + CLOUDY    69  68  94 CALM      30.04R

$$

INZ028-029-035-036-043>045-051>053-210700-
WEST CENTRAL INDIANA

CITY           SKY/WX    TMP DP  RH WIND       PRES   REMARKS
GREENCASTLE +  CLEAR     70  68  94 CALM      30.03R
LAFAYETTE      CLEAR     72  69  90 CALM      29.99S
6HR MIN TEMP:  71; 6HR MAX TEMP:  82;

TERRE HAUTE    CLEAR     70  67  90 CALM      30.00R
6HR MIN TEMP:  70; 6HR MAX TEMP:  81;


$$

INZ030>032-037>040-046>048-054>057-064-065-210700-
CENTRAL INDIANA

CITY           SKY/WX    TMP DP  RH WIND       PRES   REMARKS
INDIANAPOLIS   CLEAR     73  70  90 S7        30.02R
6HR MIN TEMP:  73; 6HR MAX TEMP:  83;

-EAGLE CREEK   CLEAR     74  69  85 CALM      30.02R
6HR MIN TEMP:  74; 6HR MAX TEMP:  84;

KOKOMO +       CLEAR     69  67  93 S5        30.03R
6HR MIN TEMP:  69; 6HR MAX TEMP:  76;

MT COMFORT *+    N/A    N/A N/A N/A MISG        N/A
SHELBYVILLE    CLEAR     70  66  87 S6        30.02S
6HR MIN TEMP:  70; 6HR MAX TEMP:  78;


$$

INZ033-034-041-042-049-050-058-059-210700-
EAST CENTRAL INDIANA

CITY           SKY/WX    TMP DP  RH WIND       PRES   REMARKS
MUNCIE         CLEAR     74  69  85 S6        30.03S
6HR MIN TEMP:  74; 6HR MAX TEMP:  82;


$$

INZ060-061-067>069-081>083-085>088-210700-
SOUTHWEST INDIANA

CITY           SKY/WX    TMP DP  RH WIND       PRES   REMARKS
EVANSVILLE     CLEAR     72  70  93 CALM      30.00S
6HR MIN TEMP:  72; 6HR MAX TEMP:  83;

HUNTINGBURG +    N/A    N/A N/A N/A MISG        N/A

$$

INZ062-063-066-070>080-084-089>092-210700-
SOUTH CENTRAL AND SOUTHEAST INDIANA

CITY           SKY/WX    TMP DP  RH WIND       PRES   REMARKS
BLOOMINGTON    CLEAR     74  68  81 S5        30.03R
6HR MIN TEMP:  73; 6HR MAX TEMP:  82;

MADISON *+       N/A     68  66  94 CALM      30.07R
SEYMOUR +      CLEAR     68  68 100 CALM      30.03R FOG

$$




USA.gov is the U.S. government's official web portal to all federal, state and local government web resources and services.